Location: Cudham
(51.3000°N, 0.0667°E)
Time: 22:00:48
(UTC+00:00)

Cosmos 2341 Rocket - Pass Details

Date: 19 May 2025
Orbit: 966 x 1004 km, 82.9° (Epoch: 11 June)

Event Time Altitude Azimuth Distance (km) Brightness Sun altitude
Rises 21:36:50 0° 348° (NNW) 3,697 8.5 -12.5°
Reaches altitude 10° 21:39:22 10° 346° (NNW) 2,740 7.6 -12.7°
Maximum altitude 21:45:35 69° 265° (W) 1,042 4.3 -13.2°
Enters shadow 21:51:18 12° 184° (S) 2,547 5.7 -13.6°
